Regional Weather Roundup
Issued by NWS

Home | Current Version | Previous Version | Graphics & Text | Print | Product List | Glossary On
Versions: 1 2 3 4 5 6 7 8 9 10 11 12 13 14 15 16 17 18 19 20 21 22 23 24 25 26 27 28
000
ASUS45 KSLC 021010
RWRUT

UTAH REGIONAL WEATHER ROUNDUP
NATIONAL WEATHER SERVICE SALT LAKE CITY UT
300 AM MST FRI DEC 02 2016

UTZ001>011-023>025-021100-

NORTHERN UTAH

CITY           SKY/WX    TMP DP  RH WIND       PRES   REMARKS
BRIGHAM CITY     N/A     28  23  79 CALM      30.17S
HILL AFB       PTCLDY    23  16  74 SE12      30.14R WCI  11
LOGAN          PTCLDY    24  21  88 CALM      30.17S
OGDEN          PTCLDY    22  17  81 S6        30.14S WCI  14
SALT LAKE CITY PTCLDY    28  22  78 S5        30.15S WCI  23
TOOELE VALLEY  LGT SNOW  30  30 100 CALM      30.17S VSB 3/4
WENDOVER       CLOUDY    30  16  55 NW7       30.19S WCI  23
HEBER CITY     CLOUDY    16  12  86 E5        30.10S WCI   9
WEST JORDAN    MOCLDY    24  24 100 CALM      30.15R

$$

UTZ011>015-024>027-021100-

CENTRAL/NORTHEAST UTAH

CITY           SKY/WX    TMP DP  RH WIND       PRES   REMARKS
PROVO AIRPORT  MOCLDY    24  22  91 CALM      30.16R
MOAB/CANYONLAN CLOUDY    31  20  63 W5        30.02F WCI  26
DELTA          CLOUDY    28  21  74 N8        30.12S WCI  20
PRICE          CLOUDY    26  11  52 NW7       30.03F WCI  18
ROOSEVELT      FLURRIES  28  23  80 N6        30.13S WCI  22
VERNAL         CLOUDY    22  17  81 NW6       30.11R WCI  14

$$

UTZ013>016-019>022-027-021100-

SOUTHERN UTAH

CITY           SKY/WX    TMP DP  RH WIND       PRES   REMARKS
BRYCE CANYON   MOCLDY    17  13  84 NE8       29.97S WCI   7
CEDAR CITY     CLOUDY    27  19  72 N9        30.02S WCI  18
MILFORD        CLOUDY    25  18  74 N10       30.07S WCI  15
ST GEORGE      MOSUNNY   37  19  48 N7        30.02F WCI  32
HANKSVILLE     CLOUDY    32  21  64 CALM      30.07S
BLANDING       MOCLDY    24  17  75 N7        30.03F WCI  16

$$

REGIONAL REPORTS     COLORADO/ARIZONA

CITY           SKY/WX    TMP DP  RH WIND       PRES   REMARKS
CRAIG, CO      CLOUDY    18  15  88 CALM      30.09S
GRAND JUNCTION CLOUDY    29  24  82 CALM      30.05S
RIFLE, CO      CLOUDY    26  19  74 CALM      30.06F
MONTROSE, CO   CLOUDY    24  16  71 CALM      30.05F
CORTEZ, CO     CLOUDY    17  13  84 CALM      29.98F
COLORADO CITY  PTSUNNY   32  25  74 CALM      29.99F
PAGE, AZ       CLOUDY    36  16  44 CALM      29.96S
GRAND CANYON   CLOUDY    30  16  56 NE13      29.92S WCI  20
KINGMAN, AZ    CLOUDY    38  18  44 E9        29.93R WCI  31
FLAGSTAFF, AZ  CLOUDY    26  14  60 E7        29.88F WCI  18

$$

REGIONAL REPORTS    NEVADA/IDAHO/WYOMING

CITY           SKY/WX    TMP DP  RH WIND       PRES   REMARKS
LAS VEGAS, NV  CLOUDY    50  14  23 N21G28    29.99F
ELY, NY        CLOUDY    22  13  68 N10       30.10S WCI  11
ELKO, NV       MOCLDY    21  16  81 CALM      30.19R
POCATELLO, ID  LGT SNOW  25  23  92 SW8       30.21S FOG     WCI  16
BURLEY, ID     CLEAR     23  19  85 CALM      30.22R
FORT BRIDGER,  PTSUNNY   15  15  98 W8        30.10S WCI   4
EVANSTON, WY   CLOUDY    17  13  84 CALM      30.07R
ROCK SPRINGS,  CLOUDY    12  10  92 W5        30.08R WCI   4

$$




USA.gov is the U.S. government's official web portal to all federal, state and local government web resources and services.